This demonstration page uses our WeatherBlox Daily Observations layout. Learn more.

Left ArrowRight Arrow

34.16533, -84.80231

Hourly Observations for August 4, 2022

Temp ( °F °C ) Dew Point ( °F °C ) Humidity (%) Winds ( mph kmh ) Pressure ( in mb ) Visibility ( mi km ) Precip ( " mm )
12:15 am 00:15 Partly Cloudy 73 23 72 22 94 94 NE 5 7 30.09 1019 10 16 0.00 0.00
12:35 am 00:35 Mostly Cloudy with Light Rain 73 23 72 22 94 94 Calm 30.09 1019 10 16 0.00 0.00
12:55 am 00:55 Cloudy with Light Rain 73 23 72 22 94 94 NE 5 7 30.10 1019 9 14 0.01 0.25
1:15 am 01:15 Cloudy with Light Rain 73 23 72 22 94 94 Calm 30.09 1019 10 16 0.00 0.00
1:35 am 01:35 Mostly Cloudy with Light Rain 73 23 72 22 94 94 E 6 9 30.08 1019 10 16 0.00 0.00
1:55 am 01:55 Mostly Clear 73 23 72 22 94 94 Calm 30.07 1018 10 16 0.01 0.25
2:15 am 02:15 Clear 72 22 72 22 100 100 Calm 30.08 1019 10 16 0.00 0.00
2:35 am 02:35 Clear 73 23 72 22 94 94 Calm 30.06 1018 10 16 0.00 0.00
2:55 am 02:55 Clear 72 22 72 22 100 100 VRB 3 6 30.06 1018 10 16 0.00 0.00
3:15 am 03:15 Clear 72 22 72 22 100 100 ESE 5 7 30.04 1017 10 16 0.00 0.00
3:35 am 03:35 Clear 72 22 70 21 94 94 VRB 5 7 30.03 1017 10 16 0.00 0.00
3:55 am 03:55 Clear 72 22 70 21 94 94 ESE 6 9 30.03 1017 10 16 0.00 0.00
4:15 am 04:15 Clear 72 22 70 21 94 94 ESE 3 6 30.04 1017 10 16 0.00 0.00
4:35 am 04:35 Clear 72 22 70 21 94 94 Calm 30.05 1018 10 16 0.00 0.00
4:55 am 04:55 Clear 72 22 70 21 94 94 Calm 30.05 1018 10 16 0.00 0.00
5:15 am 05:15 Clear 72 22 70 21 94 94 Calm 30.06 1018 10 16 0.00 0.00
5:35 am 05:35 Clear 72 22 70 21 94 94 SE 3 6 30.06 1018 10 16 0.00 0.00
5:55 am 05:55 Clear 70 21 70 21 100 100 Calm 30.06 1018 10 16 0.00 0.00
6:15 am 06:15 Clear 70 21 70 21 100 100 Calm 30.08 1019 10 16 0.00 0.00
6:35 am 06:35 Clear 70 21 70 21 100 100 Calm 30.08 1019 10 16 0.00 0.00
6:55 am 06:55 Sunny 70 21 70 21 100 100 Calm 30.09 1019 10 16 0.00 0.00
7:15 am 07:15 Sunny 70 21 70 21 100 100 Calm 30.09 1019 10 16 0.00 0.00
7:35 am 07:35 Sunny 72 22 70 21 94 94 ESE 3 6 30.10 1019 10 16 0.00 0.00
7:55 am 07:55 Sunny 72 22 70 21 94 94 ESE 5 7 30.11 1020 10 16 0.00 0.00
8:15 am 08:15 Sunny 73 23 70 21 89 89 ESE 6 9 30.11 1020 10 16 0.00 0.00
8:35 am 08:35 Mostly Cloudy 73 23 70 21 89 89 VRB 5 7 30.11 1020 10 16 0.00 0.00
8:55 am 08:55 Mostly Cloudy 75 24 70 21 83 83 ESE 7 11 30.11 1020 10 16 0.00 0.00
9:15 am 09:15 Mostly Cloudy 75 24 72 22 89 89 VRB 3 6 30.12 1020 10 16 0.00 0.00
9:35 am 09:35 Cloudy 75 24 72 22 89 89 Calm 30.13 1020 10 16 0.00 0.00
9:55 am 09:55 Mostly Cloudy 77 25 72 22 83 83 VRB 5 7 30.12 1020 10 16 0.00 0.00
10:15 am 10:15 Mostly Cloudy 79 26 72 22 79 79 S 5 7 30.12 1020 10 16 0.00 0.00
10:35 am 10:35 Cloudy 79 26 72 22 79 79 VRB 3 6 30.12 1020 10 16 0.00 0.00
10:55 am 10:55 Partly Cloudy 81 27 73 23 79 79 VRB 5 7 30.10 1019 10 16 0.00 0.00
11:15 am 11:15 Mostly Sunny 81 27 73 23 79 79 ENE 3 6 30.11 1020 10 16 0.00 0.00
11:35 am 11:35 Mostly Sunny 84 29 73 23 70 70 SE 6 9 30.11 1020 10 16 0.00 0.00
11:55 am 11:55 Sunny 84 29 73 23 70 70 ESE 7 11 30.11 1020 10 16 0.00 0.00
12:15 pm 12:15 Sunny 86 30 72 22 62 62 SE 3 6 30.11 1020 10 16 0.00 0.00
12:35 pm 12:35 Mostly Cloudy 86 30 73 23 66 66 VRB 5 7 30.11 1020 10 16 0.00 0.00
12:55 pm 12:55 Mostly Sunny 88 31 72 22 59 59 SSE 6 9 30.10 1019 10 16 0.00 0.00
1:15 pm 13:15 Mostly Cloudy 86 30 72 22 62 62 VRB 5 7 30.10 1019 10 16 0.00 0.00
1:35 pm 13:35 Partly Cloudy 88 31 72 22 59 59 SSE 9 15 30.08 1019 10 16 0.00 0.00
1:55 pm 13:55 Sunny 88 31 72 22 59 59 VRB 3 6 30.08 1019 10 16 0.00 0.00
2:15 pm 14:15 Partly Cloudy 88 31 70 21 55 55 ESE 5 7 30.08 1019 10 16 0.00 0.00
2:35 pm 14:35 Partly Cloudy 90 32 70 21 52 52 VRB 3 6 30.07 1018 10 16 0.00 0.00
2:55 pm 14:55 Mostly Sunny 90 32 72 22 55 55 VRB 5 7 30.06 1018 10 16 0.00 0.00
3:15 pm 15:15 Sunny 90 32 70 21 52 52 SSE 5 7 30.06 1018 10 16 0.00 0.00
3:35 pm 15:35 Sunny 90 32 68 20 49 49 SSE 9 15 30.05 1018 10 16 0.00 0.00
3:55 pm 15:55 Sunny 91 33 68 20 46 46 S 7 11 30.04 1017 10 16 0.00 0.00
4:15 pm 16:15 Sunny 91 33 70 21 49 49 SSE 6 9 30.03 1017 10 16 0.00 0.00
4:35 pm 16:35 Sunny 91 33 68 20 46 46 VRB 5 7 30.02 1017 10 16 0.00 0.00
4:55 pm 16:55 Sunny 91 33 70 21 49 49 VRB 3 6 30.02 1017 10 16 0.00 0.00
5:15 pm 17:15 Sunny 91 33 68 20 46 46 VRB 5 7 30.02 1017 10 16 0.00 0.00
5:35 pm 17:35 Sunny 91 33 70 21 49 49 VRB 6 9 30.02 1017 9 14 0.00 0.00
5:55 pm 17:55 Sunny 91 33 66 19 44 44 S 7 11 30.02 1017 10 16 0.00 0.00
6:15 pm 18:15 Sunny 91 33 68 20 46 46 SSE 6 9 30.02 1017 10 16 0.00 0.00
6:35 pm 18:35 Sunny 91 33 72 22 52 52 SE 5 7 30.02 1017 10 16 0.00 0.00
6:55 pm 18:55 Sunny 91 33 70 21 49 49 SSE 6 9 30.02 1017 10 16 0.00 0.00
7:15 pm 19:15 Sunny 90 32 72 22 55 55 SE 7 11 30.02 1017 10 16 0.00 0.00
7:35 pm 19:35 Sunny 90 32 73 23 59 59 Calm 30.02 1017 10 16 0.00 0.00
7:55 pm 19:55 Sunny 86 30 73 23 66 66 ESE 5 7 30.04 1017 10 16 0.00 0.00
8:15 pm 20:15 Sunny 84 29 73 23 70 70 E 7 11 30.04 1017 10 16 0.00 0.00
8:35 pm 20:35 Sunny 84 29 72 22 66 66 VRB 3 6 30.05 1018 10 16 0.00 0.00
8:55 pm 20:55 Clear 82 28 72 22 70 70 Calm 30.06 1018 10 16 0.00 0.00
9:15 pm 21:15 Clear 81 27 73 23 79 79 Calm 30.06 1018 10 16 0.00 0.00
9:35 pm 21:35 Clear 81 27 73 23 79 79 Calm 30.07 1018 10 16 0.00 0.00
9:55 pm 21:55 Clear 81 27 72 22 74 74 Calm 30.08 1019 10 16 0.00 0.00
10:15 pm 22:15 Clear 79 26 73 23 84 84 Calm 30.09 1019 10 16 0.00 0.00
10:35 pm 22:35 Clear 79 26 72 22 79 79 E 3 6 30.09 1019 10 16 0.00 0.00
10:55 pm 22:55 Clear 79 26 73 23 84 84 Calm 30.10 1019 10 16 0.00 0.00
11:15 pm 23:15 Clear 77 25 72 22 83 83 Calm 30.10 1019 10 16 0.00 0.00
11:35 pm 23:35 Clear 77 25 73 23 89 89 E 3 6 30.10 1019 10 16 0.00 0.00
11:55 pm 23:55 Clear 75 24 73 23 94 94 Calm 30.10 1019 10 16 0.00 0.00

Powered by AerisWeather